Weather in Mülheim an der Ruhr

Germany     51°26′18″N   6°53′27″E
temp.,
°C
wind,
m/s
gust,
m/s
humid.,
%
clouds,
%
prec.,
mm/h
press.,
hPa
HPBL,
m
14 may, fri
fri1423:00+11wsw3794100 0.8 1007341
02:00+11wsw2595100 0.9 1007260
05:00+10sw2595100 0.1 1007245
08:00+10sw2483100 0.1 1008245
11:00+15wsw3450100 0.0 10081213
14:00+17w344391 0.1 10072057
17:00+16wsw335725 0.4 10071040
20:00+14w24693 0.9 1007200
15 may, sat
sat1523:00+10ssw25924 0.5 1008138
02:00+9s26955 0.5 1007188
05:00+7s28955 0.0 1006241
08:00+9ssw478743 0.0 1006435
11:00+10ssw478592 0.1 1005731
14:00+10ssw61092100 2.2 1005833
17:00+12ssw3578100 2.2 1003880
20:00+9sw3894100 3.5 1003570
16 may, sun
sun1623:00+8s389591 0.1 1003438
02:00+8s39967 0.3 1003278
05:00+6s3996100 0.0 1003305
08:00+8ssw41093100 0.3 1003560
11:00+12sw5878100 0.8 10021172
14:00+13sw688194 2.8 10021197
17:00+14wsw4869100 0.6 10011561
20:00+11sw4986100 1.6 1001662
17 may, mon
mon1723:00+10s31094100 1.4 1001367
02:00+10ssw41294100 1.8 1001638
05:00+9sw61290100 0.1 10011072
08:00+9sw61393100 1.0 1002998
11:00+9sw61295100 1.3 10031085
14:00+10sw61192100 1.7 10051001
17:00+12wsw5989100 1.5 1005962
20:00+11sw51191100 4.6 1004662
18 may, tue
tue1823:00+10sw41097100 2.1 1006437
02:00+9sw5119799 3.1 1007752
05:00+9sw51197100 2.0 1007788
08:00+9sw51094100 2.2 1009992
11:00+9sw6109299 0.4 10111052
14:00+9sw61289100 1.1 10111075
17:00+11w599095 1.8 1012980
20:00+10wsw499087 4.1 1012654